Rbgn^[z[y[W
メイン
   新天体発見情報
     Comet C/2019 E3 (ATLAS)
投稿するにはまず登録を

スレッド表示 | 新しいものから 前のトピック | 次のトピック | 下へ
投稿者 スレッド
佐藤裕久
投稿日時: 2019-4-1 8:13
モデレータ
登録日: 2005-6-12
居住地: 日本
投稿: 2505
オンライン
Comet C/2019 E3 (ATLAS)

3月5日UT、ハワイ Mauna Loaにある小惑星地球衝突最終警報システム Asteroid Terrestrial-
impact Last Alert System (ATLAS)調査プログラムのコースに0.5-m f/2 Schmidt反射望遠鏡で
小惑星状天体を発見した。後にD. Youngは発見の30秒露出4枚スタックから彗星状に見えると報告
があった。
小惑星センターのNEOCPとPCCP webpageに公表後、A. C. GilmoreとP. M. Kilmartin (Mt John
大学天文台, 1.0-m f/7.7 反射望遠鏡, 3月6.5日UT貧弱なシーイングの中、中程度の集光で約10"
の丸いコマが見えた)や佐藤英貴氏(東京都文京区, iTelescope 天文台, 0.51-m f/6.8 アストロ
グラフ, Siding Spring, ニューサウスウェールズ州, オーストラリア, 遠隔操作)によると、
3月7.58日、60秒露出10枚のスタックで、強く集光した15"の核状コマが見えるが尾はない。8".8
の円形範囲で測定した全光度は18.3等であった)らCCD位置観測者によって彗星状と観測された。

発見位置は次のとおり、

     2019 UT             R.A. (2000) Decl.       Mag.
     Mar.  5.42678   10 14 03.12   -37 05 03.2   18.4
           5.43322   10 14 03.07   -37 05 02.4   17.8
           5.44151   10 14 02.74   -37 05 01.0   18.8
           5.45626   10 14 02.39   -37 05 00.8   18.9

暫定準放物線軌道要素と位置推算表は次のとおり、

Orbital elements:
    C/2019 E3 (ATLAS)
Epoch 2023 Dec. 2.0 TT = JDT 2460280.5
T 2023 Nov. 16.82444 TT                                 MPCW
q  10.3513515            (2000.0)            P               Q
z  +0.0015810      Peri.  280.43575     +0.15392547     +0.96265621
 +/-0.0023053      Node   347.06216     +0.26162534     -0.25705971
e   0.9836343      Incl.   84.10651     -0.95281642     +0.08493134
From 43 observations 2019 Mar. 5-21, mean residual 0".3.

    C/2019 E3 (ATLAS)
Epoch 2019 Apr. 27.0 TT = JDT 2458600.5
T 2023 Nov. 12.72417 TT                                 MPCW
q  10.3556045            (2000.0)            P               Q
z  +0.0009530      Peri.  280.30766     +0.15153859     +0.96291065
 +/-0.0023053      Node   347.02949     +0.26147260     -0.25686009
e   0.9901310      Incl.   84.06598     -0.95324086     +0.08261946
From 43 observations 2019 Mar. 5-21, mean residual 0".3.

Ephemeris:
    C/2019 E3 (ATLAS)
Date    TT    R. A. (2000) Decl.     Delta      r     Elong.  Phase   m1
2019 02 19    10 19 52.0 -37 03 19  13.0086 13.6813   131.3     3.1  19.4
...
2019 03 06    10 13 49.4 -37 04 50  12.9092 13.6330   135.4     2.9  19.4
...
2019 03 14    10 10 40.8 -37 00 07  12.8779 13.6073   135.7     2.9  19.4
...
2019 03 20    10 08 25.0 -36 54 21  12.8644 13.5881   135.1     3.0  19.4
2019 03 21    10 08 03.0 -36 53 13  12.8629 13.5849   135.0     3.0  19.4
2019 03 22    10 07 41.1 -36 52 02  12.8617 13.5817   134.8     3.0  19.4
...
2019 03 28    10 05 34.6 -36 44 02  12.8592 13.5625   133.3     3.1  19.4
...
2019 04 05    10 02 59.3 -36 31 10  12.8683 13.5370   130.3     3.2  19.4
...
2019 04 20    09 58 59.2 -36 02 19  12.9203 13.4893   122.7     3.6  19.4

(CBET 4615、MPEC 2019-F54)

スレッド表示 | 新しいものから 前のトピック | 次のトピック | トップ

投稿するにはまず登録を
 
© 1999 Tsutomu Seki.